Regional Weather Roundup
Issued by NWS

Home | Current Version | Previous Version | Graphics & Text | Print | Product List | Glossary On
Versions: 1 2 3 4 5 6 7 8 9 10 11 12 13 14 15 16 17 18 19 20 21 22 23 24 25 26 27 28 29 30 31 32 33 34 35 36 37 38 39 40 41 42 43 44 45 46 47 48 49 50
000
ASUS43 KIND 261859
RWRIN

WEATHER ROUNDUP FOR INDIANA
NATIONAL WEATHER SERVICE INDIANAPOLIS IN
300 PM EDT FRI AUG 26 2016

NOTE: "FAIR" INDICATES FEW OR NO CLOUDS BELOW 12,000 FEET WITH NO
SIGNIFICANT WEATHER AND/OR OBSTRUCTIONS TO VISIBILITY.

* - STATION DOES NOT REPORT WEATHER SUCH AS PRECIPITATION OR FOG.

+ - STATION NOT QUALITY CONTROLLED BY THE NATIONAL WEATHER SERVICE.
    USE DATA WITH CAUTION...ESPECIALLY DEWPOINT AND RELATIVE
    HUMIDITY OBSERVATIONS.

INZ001>003-010>013-019-020-262000-
NORTHWEST INDIANA

CITY           SKY/WX    TMP DP  RH WIND       PRES   REMARKS
GARY /AIRPORT/ MOSUNNY   79  68  69 N8        30.15F
KNOX *+        CLOUDY    79  41  25 CALM      30.14F
MONTICELLO +   CLOUDY    83  67  58 NE3       30.12F
RENSSELAER +   CLOUDY    81  70  69 E8        30.13F

$$

LMZ046-743>745-262000-
SOUTHERN LAKE MICHIGAN

STATION/POSITION TIME  TEMP    WIND        PRES    WAVE
                       AIR SEA DIR/SP/G            HT
                 (UTC) (F)     (DEG/KT/KT) (MB)    (FT)
BURNS HARBOR     1800   73      20/  8/ 10 1021.3F
MICHIGAN CITY    1800   73     360/  9/ 10   N/A
5NW MICH CITY    1800   74 75   10/  8/ 10   N/A     1

$$

INZ004-005-014>016-021>024-262000-
NORTH CENTRAL INDIANA

CITY           SKY/WX    TMP DP  RH WIND       PRES   REMARKS
ELKHART        SUNNY     81  59  47 CALM      30.16F
GOSHEN         SUNNY     82  61  48 S3        30.15F
PERU/GRISSOM   SUNNY     84  71  65 VRB1      30.13S
SOUTH BEND     SUNNY     82  63  52 VRB7      30.15S

$$

INZ006>009-017-018-025>027-262000-
NORTHEAST INDIANA

CITY           SKY/WX    TMP DP  RH WIND       PRES   REMARKS
ANGOLA *+      SUNNY     84  61  45 CALM      30.15F
FORT WAYNE     MOSUNNY   84  62  47 SE5       30.15F

$$

INZ028-029-035-036-043>045-051>053-262000-
WEST CENTRAL INDIANA

CITY           SKY/WX    TMP DP  RH WIND       PRES   REMARKS
CRAWFORDSVL +  PTSUNNY   84  74  73 NE3       30.11F
GREENCASTLE +  CLOUDY    86  79  79 CALM      30.10F HX  99
LAFAYETTE      MOSUNNY   84  73  69 CALM      30.10F
TERRE HAUTE    CLOUDY    83  72  69 NE6G17    30.07F THUNDER

$$

INZ030>032-037>040-046>048-054>057-064-065-262000-
CENTRAL INDIANA

CITY           SKY/WX    TMP DP  RH WIND       PRES   REMARKS
ANDERSON       MOSUNNY   86  72  62 CALM      30.13
COLUMBUS       MOSUNNY   86  77  74 CALM      30.11F HX  97
INDIANAPOLIS   PTSUNNY   88  74  63 CALM      30.09F HX  96
-EAGLE CREEK   SUNNY     89  71  55 CALM      30.10F HX  95
MT COMFORT *+  SUNNY     86  73  66 S3        30.12F
SHELBYVILLE    MOSUNNY   90  75  61 SW5       30.10F HX 100

$$

INZ033-034-041-042-049-050-058-059-262000-
EAST CENTRAL INDIANA

CITY           SKY/WX    TMP DP  RH WIND       PRES   REMARKS
MUNCIE         MOSUNNY   88  73  61 NE5       30.13F HX  95

$$

INZ060-061-067>069-081>083-085>088-262000-
SOUTHWEST INDIANA

CITY           SKY/WX    TMP DP  RH WIND       PRES   REMARKS
EVANSVILLE     MOSUNNY   91  73  55 E6        30.07F HX  99
HUNTINGBURG *+ MOSUNNY   91  73  55 SE5       30.09F HX 100

$$

INZ062-063-066-070>080-084-089>092-262000-
SOUTH CENTRAL AND SOUTHEAST INDIANA

CITY           SKY/WX    TMP DP  RH WIND       PRES   REMARKS
BLOOMINGTON    MOSUNNY   88  72  58 S6        30.10F
MADISON *+     MOSUNNY   90  70  51 CALM      30.13F HX  95

$$




USA.gov is the U.S. government's official web portal to all federal, state and local government web resources and services.